THOR ABLESTAR DEB, 478

Orbit data source: Space-Track

THOR ABLESTAR DEB, 478 is space debris in LEO originally from a launch on Thu, 29 Jun 1961 UTC launched from the Air Force Eastern Test Range (AFETR). Debris objects in space refer to the collection of defunct objects orbiting the Earth. Examples of debris include non-operational satellites, rocket bodies, and fragments generated from explosions, collisions, or faulty payload assembly.

Loading next visibility...
Identifier
478, 1961-015FQ
Orbit
LEO
Country
Flag of USUS
Related business
Manufacturer
Unknown
Mission
Spacecraft
Bus & Motor
Unknown
Mass
Unknown
Launch date (UTC)
1961-06-29 (64 years ago)
Launch vehicle
Unknown
Launch site
Air Force Eastern Test Range (AFETR)
Object type
Payload
Rocket body
Debris
Shape & HBR
Unknown shape, 0.1 m
Radar Cross Section
Small (<0.1 m²)

Expand to show TLE details & history
Last TLE update: 20 hours ago

TLE from 20 hours ago
0 THOR ABLESTAR DEB
1 00478U 61015FQ  25300.92956936  .00017533  00000-0  18740-2 0  9992
2 00478  66.0592 134.8901 0019542 111.0149 249.3067 14.88720069349511
Epoch: 2025-10-27T22:18Z
TLE epoch observation values (Epoch: 2025-10-27T22:18:34.792Z)
Latitude
0.00004°
Longitude
123.72079°
Altitude
608.89 km
Speed
7.553 km/s
True Right ascension
08h 59m 33s
True Declination
0° 00' 00"
Sunlit
Object was in daylight at epoch
Visualization orbit readout
Latitude
Unknown
Longitude
Unknown
Altitude
Unknown
Speed
Unknown
Apparent Right ascension
Unknown
Apparent Declination
Unknown
Sunlit
N/A
Visualization observer readout
Local Sidereal Time
14:04:28
Azimuth
Unknown
Elevation
Unknown
Doppler factor
Unknown
Orbital elements
Apogee altitude
613.979 km
Perigee altitude
586.704 km
Semi-major axis
6,978.479 km
Eccentricity
0.00195
Inclination
66.0592°
RAAN
134.8901°
Arg. of periapsis
111.0149°
True anomaly
249.09739°
Mean anomaly
249.3067°
Eccentric anomaly
249.20203°
Mean motion
3.72308 °/min
Orbital period
96.69 mins
BSTAR
0.001874
Loading maneuver chart data...
Computing Atmospheric mass density...

Documentation

Showing up to 5 results
|